This is the latest recevied weather packets stored in our database for station/object WB3IGR. If no packets are shown the sender has not sent any weather packets the latest 10 day(s).
| Time | Temp. | Humidity | Pressure | Rain* | Wind** | Luminosity | Snow |
|---|---|---|---|---|---|---|---|
| 1777445742 | 11.67° C | 75% | 1017.4 hPa | 0 mm | - | 0 W/m² | - |
| 1777445438 | 11.67° C | 74% | 1017.3 hPa | 0 mm | - | 0 W/m² | - |
| 1777445135 | 11.67° C | 75% | 1017.5 hPa | 0 mm | - | 0 W/m² | - |
| 1777444832 | 11.11° C | 77% | 1017.8 hPa | 0 mm | - | 0 W/m² | - |
| 1777444527 | 11.67° C | 80% | 1017.9 hPa | 0 mm | - | 0 W/m² | - |
| 1777444219 | 11.67° C | 79% | 1018.2 hPa | 0 mm | - | 0 W/m² | - |
| 1777443915 | 11.67° C | 81% | 1018.1 hPa | 0 mm | - | 0 W/m² | - |
| 1777443611 | 11.67° C | 80% | 1018.2 hPa | 0 mm | - | 0 W/m² | - |
| 1777443305 | 11.67° C | 80% | 1018.1 hPa | 0 mm | - | 0 W/m² | - |
| 1777443003 | 11.67° C | 78% | 1018.2 hPa | 0 mm | - | 0 W/m² | - |
| 1777442700 | 12.22° C | 77% | 1018.3 hPa | 0 mm | - | 0 W/m² | - |
| 1777442396 | 11.67° C | 74% | 1018 hPa | 0 mm | - | 0 W/m² | - |
| 1777442092 | 11.67° C | 75% | 1018.2 hPa | 0 mm | - | 0 W/m² | - |
| 1777441787 | 11.67° C | 75% | 1018.1 hPa | 0 mm | - | 0 W/m² | - |
| 1777441483 | 12.22° C | 76% | 1018.3 hPa | 0 mm | - | 0 W/m² | - |
| 1777441178 | 12.22° C | 74% | 1018.3 hPa | 0 mm | - | 0 W/m² | - |
| 1777440874 | 12.22° C | 73% | 1018.5 hPa | 0 mm | - | 0 W/m² | - |
| 1777440570 | 12.22° C | 73% | 1018.5 hPa | 0 mm | - | 0 W/m² | - |
| 1777440266 | 12.22° C | 73% | 1018.4 hPa | 0 mm | - | 0 W/m² | - |
| 1777439963 | 12.22° C | 73% | 1018.7 hPa | 0 mm | - | 0 W/m² | - |
| 1777439659 | 12.22° C | 72% | 1018.6 hPa | 0 mm | - | 0 W/m² | - |
| 1777439355 | 12.22° C | 72% | 1018.6 hPa | 0 mm | - | 0 W/m² | - |
| 1777439050 | 12.22° C | 73% | 1018.6 hPa | 0 mm | - | 0 W/m² | - |
| 1777438748 | 12.22° C | 73% | 1018.5 hPa | 0 mm | - | 0 W/m² | - |
| 1777438444 | 12.22° C | 72% | 1018.6 hPa | 0 mm | - | 0 W/m² | - |
* Rain latest hour (hover to see other rain measurements)
** Current wind speed in m/s (hover to see current wind gust speed)